Weather History for Glendive, MT

Change the Weather History Date:

Sunday, April 13, 2014

  Actual Average Record
Temperature  
Mean Temperature 31 °F -  
Max Temperature 39 °F 51 °F 78 °F (2004)
Min Temperature 23 °F 29 °F 19 °F (1997)
Degree Days  
Heating Degree Days 34    
Moisture  
Dew Point 14 °F    
Average Humidity 53    
Maximum Humidity 75    
Minimum Humidity 33    
Precipitation  
Precipitation 0.00 in - - ()
Sea Level Pressure  
Sea Level Pressure 30.24 in    
Wind  
Wind Speed 14 mph (NNW)    
Max Wind Speed 21 mph    
Max Gust Speed 25 mph    
Visibility 10 miles    
Events      
Averages and records for this station are not official NWS values.
T = Trace of Precipitation, MM = Missing Value Source: NWS Daily Summary

Daily Weather History Graph

Daily Weather History Graph

Search for Another Location

Airport:

Trip Planner

Search our weather history database for the weather conditions in past years. The results will help you decide how hot, cold, wet, or windy it might be!

Date:

Astronomy

Apr. 13, 2014 Rise Set
Actual Time 6:14 AM MDT 7:45 PM MDT
Civil Twilight 5:43 AM MDT 8:17 PM MDT
Nautical Twilight 5:04 AM MDT 8:56 PM MDT
Astronomical Twilight 4:22 AM MDT 9:38 PM MDT
Moon 6:21 PM MDT (4/13) 5:21 AM MDT (4/13)
Length of Visible Light 14h 34m
Length of Day
13h 30m
Waxing Gibbous, 97% of the Moon is Illuminated
Apr 13
Waxing Gibbous
Apr 15
Full
Apr 22
Last Quarter
Apr 29
New
May 6
First Quarter

Hourly Weather History & Observations

Time (MDT) Temp. Windchill Dew Point Humidity Pressure Visibility Wind Dir Wind Speed Gust Speed Precip Events Conditions
12:15 AM 26.6 °F 13.1 °F 15.8 °F 64% 30.16 in 10.0 mi North 19.6 mph - N/A   Overcast
12:35 AM 26.6 °F 12.7 °F 15.8 °F 64% 30.16 in 10.0 mi NNW 20.7 mph 25.3 mph N/A   Overcast
12:55 AM 26.6 °F 15.7 °F 15.8 °F 64% 30.17 in 10.0 mi North 12.7 mph - N/A   Overcast
1:15 AM 26.6 °F 14.3 °F 15.8 °F 64% 30.18 in 10.0 mi North 16.1 mph - N/A   Overcast
1:35 AM 26.6 °F 14.3 °F 15.8 °F 64% 30.19 in 10.0 mi NNW 16.1 mph 21.9 mph N/A   Overcast
1:55 AM 26.6 °F 14.3 °F 15.8 °F 64% 30.19 in 10.0 mi NNW 16.1 mph 23.0 mph N/A   Overcast
2:35 AM 24.8 °F 11.9 °F 15.8 °F 69% 30.19 in 10.0 mi North 16.1 mph 23.0 mph N/A   Overcast
2:55 AM 24.8 °F 12.9 °F 15.8 °F 69% 30.19 in 10.0 mi North 13.8 mph 20.7 mph N/A   Overcast
3:15 AM 24.8 °F 11.9 °F 15.8 °F 69% 30.19 in 10.0 mi North 16.1 mph - N/A   Overcast
3:35 AM 24.8 °F 10.3 °F 15.8 °F 69% 30.19 in 10.0 mi North 20.7 mph - N/A   Overcast
3:55 AM 24.8 °F 11.1 °F 15.8 °F 69% 30.20 in 10.0 mi North 18.4 mph - N/A   Overcast
4:15 AM 24.8 °F 12.9 °F 15.8 °F 69% 30.20 in 10.0 mi North 13.8 mph 19.6 mph N/A   Overcast
4:35 AM 24.8 °F 11.5 °F 14.0 °F 64% 30.21 in 10.0 mi North 17.3 mph - N/A   Overcast
4:55 AM 24.8 °F 12.4 °F 14.0 °F 64% 30.21 in 10.0 mi North 15.0 mph - N/A   Overcast
5:15 AM 24.8 °F 12.4 °F 15.8 °F 69% 30.21 in 10.0 mi North 15.0 mph - N/A   Overcast
5:35 AM 24.8 °F 14.6 °F 15.8 °F 69% 30.22 in 10.0 mi North 10.4 mph - N/A   Overcast
5:55 AM 24.8 °F 12.9 °F 14.0 °F 64% 30.22 in 10.0 mi North 13.8 mph 23.0 mph N/A   Overcast
6:15 AM 24.8 °F 13.4 °F 14.0 °F 64% 30.23 in 10.0 mi North 12.7 mph - N/A   Overcast
6:35 AM 24.8 °F 16.1 °F 14.0 °F 64% 30.23 in 10.0 mi North 8.1 mph - N/A   Overcast
6:55 AM 23.0 °F 13.9 °F 14.0 °F 68% 30.24 in 10.0 mi North 8.1 mph - N/A   Mostly Cloudy
7:15 AM 23.0 °F 15.8 °F 15.8 °F 74% 30.25 in 10.0 mi North 5.8 mph - N/A   Partly Cloudy
7:35 AM 24.8 °F 16.9 °F 15.8 °F 69% 30.27 in 10.0 mi North 6.9 mph - N/A   Clear
7:55 AM 24.8 °F 16.9 °F 14.0 °F 64% 30.29 in 10.0 mi North 6.9 mph - N/A   Clear
8:15 AM 24.8 °F 15.3 °F 15.8 °F 69% 30.30 in 10.0 mi NNW 9.2 mph - N/A   Scattered Clouds
8:35 AM 26.6 °F 18.2 °F 15.8 °F 64% 30.30 in 10.0 mi North 8.1 mph 17.3 mph N/A   Partly Cloudy
8:55 AM 26.6 °F 16.8 °F 15.8 °F 64% 30.30 in 10.0 mi North 10.4 mph - N/A   Scattered Clouds
9:35 AM 28.4 °F 19.1 °F 14.0 °F 55% 30.30 in 10.0 mi NNE 10.4 mph - N/A   Overcast
10:15 AM 28.4 °F 18.0 °F 12.2 °F 51% 30.30 in 10.0 mi North 12.7 mph 16.1 mph N/A   Scattered Clouds
10:35 AM 30.2 °F 19.8 °F 12.2 °F 47% 30.30 in 10.0 mi North 13.8 mph 19.6 mph N/A   Mostly Cloudy
10:55 AM 30.2 °F 21.3 °F 12.2 °F 47% 30.29 in 10.0 mi NW 10.4 mph 19.6 mph N/A   Mostly Cloudy
11:35 AM 33.8 °F 23.9 °F 12.2 °F 41% 30.28 in 10.0 mi North 15.0 mph 20.7 mph N/A   Mostly Cloudy
11:55 AM 33.8 °F 24.8 °F 12.2 °F 41% 30.28 in 10.0 mi NNW 12.7 mph 23.0 mph N/A   Mostly Cloudy
12:15 PM 35.6 °F 26.6 °F 12.2 °F 38% 30.28 in 10.0 mi North 13.8 mph 20.7 mph N/A   Mostly Cloudy
12:35 PM 35.6 °F 25.9 °F 10.4 °F 35% 30.27 in 10.0 mi NW 16.1 mph 24.2 mph N/A   Mostly Cloudy
12:55 PM 35.6 °F 25.9 °F 10.4 °F 35% 30.27 in 10.0 mi North 16.1 mph 23.0 mph N/A   Mostly Cloudy
1:15 PM 35.6 °F 26.2 °F 10.4 °F 35% 30.27 in 10.0 mi North 15.0 mph 18.4 mph N/A   Mostly Cloudy
1:35 PM 35.6 °F 24.5 °F 12.2 °F 38% 30.27 in 10.0 mi NNW 20.7 mph 25.3 mph N/A   Overcast
1:55 PM 35.6 °F 25.5 °F 10.4 °F 35% 30.28 in 10.0 mi NNW 17.3 mph 23.0 mph N/A   Mostly Cloudy
2:15 PM 35.6 °F 25.5 °F 10.4 °F 35% 30.27 in 10.0 mi NNW 17.3 mph 24.2 mph N/A   Overcast
2:35 PM 35.6 °F 26.2 °F 12.2 °F 38% 30.27 in 10.0 mi WNW 15.0 mph 21.9 mph N/A   Mostly Cloudy
2:55 PM 37.4 °F 28.5 °F 12.2 °F 36% 30.26 in 10.0 mi NW 15.0 mph 23.0 mph N/A   Overcast
3:15 PM 37.4 °F 31.4 °F 12.2 °F 36% 30.26 in 10.0 mi NW 8.1 mph 20.7 mph N/A   Mostly Cloudy
3:35 PM 37.4 °F 31.4 °F 12.2 °F 36% 30.25 in 10.0 mi NNW 8.1 mph - N/A   Mostly Cloudy
3:55 PM 37.4 °F 28.9 °F 10.4 °F 33% 30.25 in 10.0 mi NNW 13.8 mph - N/A   Mostly Cloudy
4:15 PM 37.4 °F 30.3 °F 10.4 °F 33% 30.25 in 10.0 mi NW 10.4 mph - N/A   Scattered Clouds
4:35 PM 39.2 °F 32.0 °F 12.2 °F 33% 30.25 in 10.0 mi NW 11.5 mph - N/A   Mostly Cloudy
4:55 PM 37.4 °F 29.3 °F 12.2 °F 36% 30.25 in 10.0 mi NW 12.7 mph 19.6 mph N/A   Mostly Cloudy
5:15 PM 39.2 °F 31.2 °F 12.2 °F 33% 30.24 in 10.0 mi WNW 13.8 mph 19.6 mph N/A   Mostly Cloudy
5:35 PM 37.4 °F 30.8 °F 12.2 °F 36% 30.24 in 10.0 mi North 9.2 mph 18.4 mph N/A   Mostly Cloudy
5:55 PM 37.4 °F 31.4 °F 12.2 °F 36% 30.24 in 10.0 mi NNW 8.1 mph - N/A   Partly Cloudy
6:15 PM 35.6 °F 30.7 °F 10.4 °F 35% 30.25 in 10.0 mi West 5.8 mph - N/A   Partly Cloudy
6:35 PM 37.4 °F 30.3 °F 12.2 °F 36% 30.24 in 10.0 mi NW 10.4 mph - N/A   Scattered Clouds
6:55 PM 37.4 °F 28.9 °F 10.4 °F 33% 30.24 in 10.0 mi North 13.8 mph 23.0 mph N/A   Partly Cloudy
7:15 PM 35.6 °F 32.8 °F 10.4 °F 35% 30.23 in 10.0 mi NW 3.5 mph - N/A   Clear
7:35 PM 33.8 °F 27.0 °F 10.4 °F 38% 30.23 in 10.0 mi North 8.1 mph - N/A   Clear
7:55 PM 33.8 °F - 10.4 °F 38% 30.23 in 10.0 mi Calm Calm - N/A   Clear
8:15 PM 30.2 °F 26.7 °F 10.4 °F 44% 30.23 in 10.0 mi SW 3.5 mph - N/A   Clear
8:35 PM 28.4 °F 24.6 °F 10.4 °F 47% 30.23 in 10.0 mi West 3.5 mph - N/A   Clear
8:55 PM 26.6 °F 19.1 °F 14.0 °F 59% 30.24 in 10.0 mi WNW 6.9 mph - N/A   Partly Cloudy
9:15 PM 28.4 °F 21.2 °F 12.2 °F 51% 30.24 in 10.0 mi WNW 6.9 mph - N/A   Clear
9:35 PM 28.4 °F 16.6 °F 12.2 °F 51% 30.24 in 10.0 mi West 16.1 mph - N/A   Clear
9:55 PM 33.8 °F 24.8 °F 15.8 °F 48% 30.24 in 10.0 mi NW 12.7 mph - N/A   Mostly Cloudy
10:15 PM 33.8 °F 24.8 °F 17.6 °F 52% 30.24 in 10.0 mi NW 12.7 mph - N/A   Mostly Cloudy
10:35 PM 30.2 °F 19.3 °F 23.0 °F 75% 30.25 in 6.0 mi WNW 15.0 mph 24.2 mph N/A   Mostly Cloudy
10:55 PM 30.2 °F 20.2 °F 21.2 °F 69% 30.25 in 10.0 mi NW 12.7 mph - N/A   Mostly Cloudy
11:15 PM 30.2 °F 21.3 °F 21.2 °F 69% 30.25 in 10.0 mi WNW 10.4 mph - N/A   Mostly Cloudy
11:35 PM 28.4 °F 21.2 °F 21.2 °F 74% 30.24 in 10.0 mi NW 6.9 mph - N/A   Clear
11:55 PM 26.6 °F 18.2 °F 19.4 °F 74% 30.24 in 10.0 mi NW 8.1 mph - N/A   Scattered Clouds